| time (UTC) | temp F | wind direction | speed knots | gust knots | rain 1hr in | rain 24hr in | rain mn in | humidity % | barometer mb |
| 20260509032023 | 62 | 299 | 5.2 | 11.3 | 0.00 | 0.00 | 0.00 | 31 | 1002.1 |
| 20260509031534 | 62 | 312 | 5.2 | 11.3 | 0.00 | 0.00 | 0.00 | 32 | 1002.0 |
| 20260509031017 | 62 | 252 | 4.3 | 13.0 | 0.00 | 0.00 | 0.00 | 32 | 1002.1 |
| 20260509030521 | 62 | 286 | 4.3 | 13.0 | 0.00 | 0.00 | 0.00 | 34 | 1002.0 |
| 20260509030038 | 62 | 274 | 4.3 | 15.6 | 0.00 | 0.00 | 0.00 | 35 | 1002.0 |
| 20260509025517 | 61 | 292 | 7.0 | 15.6 | 0.00 | 0.00 | 0.00 | 34 | 1001.9 |
| 20260509025017 | 61 | 292 | 4.3 | 9.6 | 0.00 | 0.00 | 0.00 | 33 | 1001.8 |
| 20260509024536 | 60 | 350 | 2.6 | 8.7 | 0.00 | 0.00 | 0.00 | 33 | 1001.7 |
| 20260509024017 | 60 | 298 | 1.7 | 8.7 | 0.00 | 0.00 | 0.00 | 34 | 1001.6 |
| 20260509023517 | 60 | 301 | 2.6 | 8.7 | 0.00 | 0.00 | 0.00 | 34 | 1001.5 |
| 20260509023035 | 61 | 271 | 1.7 | 7.0 | 0.00 | 0.00 | 0.00 | 34 | 1001.4 |
| 20260509022522 | 61 | 0 | 0.0 | 3.5 | 0.00 | 0.00 | 0.00 | 34 | 1001.2 |
| 20260509022017 | 62 | 0 | 0.0 | 0.0 | 0.00 | 0.00 | 0.00 | 33 | 1001.1 |
| 20260509021532 | 62 | 0 | 0.0 | 2.6 | 0.00 | 0.00 | 0.00 | 33 | 1001.0 |
| 20260509021017 | 63 | 0 | 0.0 | 4.3 | 0.00 | 0.00 | 0.00 | 32 | 1001.0 |
| 20260509020521 | 64 | 0 | 0.9 | 4.3 | 0.00 | 0.00 | 0.00 | 31 | 1000.9 |
| 20260509020039 | 64 | 0 | 0.0 | 2.6 | 0.00 | 0.00 | 0.00 | 30 | 1000.8 |
| 20260509015518 | 65 | 0 | 0.0 | 2.6 | 0.00 | 0.00 | 0.00 | 29 | 1000.8 |
| 20260509015020 | 65 | 285 | 0.9 | 6.1 | 0.00 | 0.00 | 0.00 | 28 | 1000.6 |
| 20260509014536 | 66 | 285 | 1.7 | 7.0 | 0.00 | 0.00 | 0.00 | 27 | 1000.6 |
| 20260509014026 | 66 | 283 | 0.0 | 7.0 | 0.00 | 0.00 | 0.00 | 28 | 1000.8 |
| 20260509013521 | 67 | 302 | 1.7 | 11.3 | 0.00 | 0.00 | 0.00 | 27 | 1000.6 |
| 20260509013033 | 67 | 260 | 2.6 | 11.3 | 0.00 | 0.00 | 0.00 | 26 | 1000.5 |
| 20260509012518 | 67 | 278 | 2.6 | 13.0 | 0.00 | 0.00 | 0.00 | 25 | 1000.5 |
| 20260509012018 | 68 | 325 | 7.0 | 13.0 | 0.00 | 0.00 | 0.00 | 25 | 1000.4 |
| 20260509011535 | 68 | 302 | 4.3 | 11.3 | 0.00 | 0.00 | 0.00 | 26 | 1000.4 |
| 20260509011017 | 68 | 232 | 5.2 | 11.3 | 0.00 | 0.00 | 0.00 | 25 | 1000.4 |
| 20260509010518 | 68 | 278 | 2.6 | 13.9 | 0.00 | 0.00 | 0.00 | 27 | 1000.4 |
| 20260509010036 | 68 | 264 | 4.3 | 13.9 | 0.00 | 0.00 | 0.00 | 26 | 1000.4 |
| 20260509005520 | 69 | 278 | 3.5 | 13.9 | 0.00 | 0.00 | 0.00 | 27 | 1000.3 |
| 20260509005017 | 69 | 267 | 2.6 | 7.0 | 0.00 | 0.00 | 0.00 | 28 | 1000.3 |
| 20260509004539 | 69 | 249 | 1.7 | 6.1 | 0.00 | 0.00 | 0.00 | 27 | 1000.3 |
| 20260509004017 | 69 | 0 | 0.0 | 6.1 | 0.00 | 0.00 | 0.00 | 28 | 1000.4 |
| 20260509003519 | 69 | 292 | 1.7 | 6.1 | 0.00 | 0.00 | 0.00 | 27 | 1000.3 |
| 20260509003038 | 69 | 268 | 1.7 | 7.0 | 0.00 | 0.00 | 0.00 | 27 | 1000.3 |
| 20260509002516 | 69 | 259 | 1.7 | 7.8 | 0.00 | 0.00 | 0.00 | 26 | 1000.3 |
| 20260509002017 | 69 | 284 | 1.7 | 7.8 | 0.00 | 0.00 | 0.00 | 28 | 1000.3 |
| 20260509001534 | 70 | 240 | 2.6 | 12.2 | 0.00 | 0.00 | 0.00 | 29 | 1000.4 |
| 20260509001017 | 70 | 280 | 1.7 | 12.2 | 0.00 | 0.00 | 0.00 | 27 | 1000.4 |
| 20260509000517 | 70 | 0 | 0.0 | 6.1 | 0.00 | 0.00 | 0.00 | 26 | 1000.4 |
| 20260509000037 | 70 | 261 | 1.7 | 9.6 | 0.00 | 0.00 | 0.00 | 26 | 1000.4 |
| 20260508235518 | 70 | 303 | 0.9 | 9.6 | 0.00 | 0.00 | 0.00 | 25 | 1000.4 |
| 20260508235018 | 70 | 263 | 3.5 | 9.6 | 0.00 | 0.00 | 0.00 | 26 | 1000.4 |
| 20260508234535 | 70 | 242 | 2.6 | 9.6 | 0.00 | 0.00 | 0.00 | 26 | 1000.4 |
| 20260508234016 | 70 | 291 | 4.3 | 9.6 | 0.00 | 0.00 | 0.00 | 26 | 1000.5 |
| 20260508233517 | 71 | 280 | 3.5 | 10.4 | 0.00 | 0.00 | 0.00 | 26 | 1000.5 |
| 20260508233036 | 71 | 278 | 3.5 | 10.4 | 0.00 | 0.00 | 0.00 | 25 | 1000.6 |
| 20260508232517 | 71 | 296 | 3.5 | 8.7 | 0.00 | 0.00 | 0.00 | 26 | 1000.5 |
| 20260508232018 | 71 | 268 | 2.6 | 10.4 | 0.00 | 0.00 | 0.00 | 27 | 1000.6 |
| 20260508231540 | 71 | 229 | 3.5 | 10.4 | 0.00 | 0.00 | 0.00 | 25 | 1000.7 |
| 20260508231018 | 71 | 307 | 5.2 | 11.3 | 0.00 | 0.00 | 0.00 | 24 | 1000.8 |
| 20260508230517 | 71 | 255 | 4.3 | 11.3 | 0.00 | 0.00 | 0.00 | 24 | 1000.8 |
| 20260508230039 | 71 | 282 | 2.6 | 17.4 | 0.00 | 0.00 | 0.00 | 25 | 1000.8 |
| 20260508225521 | 71 | 328 | 7.8 | 17.4 | 0.00 | 0.00 | 0.00 | 24 | 1000.8 |
| 20260508225019 | 71 | 247 | 3.5 | 9.6 | 0.00 | 0.00 | 0.00 | 25 | 1000.8 |
| 20260508224535 | 71 | 264 | 3.5 | 13.0 | 0.00 | 0.00 | 0.00 | 25 | 1000.9 |
| 20260508224043 | 71 | 277 | 6.1 | 13.0 | 0.00 | 0.00 | 0.00 | 24 | 1000.9 |
| 20260508223517 | 71 | 249 | 6.1 | 13.0 | 0.00 | 0.00 | 0.00 | 24 | 1000.9 |
| 20260508223040 | 72 | 299 | 5.2 | 12.2 | 0.00 | 0.00 | 0.00 | 24 | 1001.0 |
| 20260508222517 | 72 | 283 | 7.0 | 12.2 | 0.00 | 0.00 | 0.00 | 26 | 1001.0 |
| 20260508222018 | 72 | 271 | 3.5 | 10.4 | 0.00 | 0.00 | 0.00 | 26 | 1001.1 |
| 20260508221537 | 72 | 282 | 2.6 | 11.3 | 0.00 | 0.00 | 0.00 | 27 | 1001.1 |
| 20260508221019 | 71 | 274 | 4.3 | 11.3 | 0.00 | 0.00 | 0.00 | 25 | 1001.2 |
| 20260508220517 | 71 | 291 | 2.6 | 12.2 | 0.00 | 0.00 | 0.00 | 26 | 1001.3 |
| 20260508220038 | 71 | 233 | 4.3 | 12.2 | 0.00 | 0.00 | 0.00 | 24 | 1001.4 |
| 20260508215519 | 71 | 333 | 2.6 | 12.2 | 0.00 | 0.00 | 0.00 | 25 | 1001.3 |
| 20260508215017 | 71 | 10 | 5.2 | 13.9 | 0.00 | 0.00 | 0.00 | 25 | 1001.5 |
| 20260508214550 | 71 | 266 | 5.2 | 13.9 | 0.00 | 0.00 | 0.00 | 24 | 1001.5 |
| 20260508214016 | 71 | 342 | 6.1 | 13.9 | 0.00 | 0.00 | 0.00 | 25 | 1001.5 |
| 20260508213517 | 71 | 52 | 1.7 | 7.0 | 0.00 | 0.00 | 0.00 | 26 | 1001.5 |
| 20260508213046 | 70 | 263 | 2.6 | 7.0 | 0.00 | 0.00 | 0.00 | 24 | 1001.7 |
| 20260508212518 | 70 | 245 | 1.7 | 8.7 | 0.00 | 0.00 | 0.00 | 26 | 1001.8 |
| 20260508212017 | 70 | 246 | 2.6 | 12.2 | 0.00 | 0.00 | 0.00 | 24 | 1001.8 |
| 20260508211541 | 71 | 263 | 5.2 | 12.2 | 0.00 | 0.00 | 0.00 | 24 | 1001.8 |
| 20260508211015 | 71 | 209 | 5.2 | 12.2 | 0.00 | 0.00 | 0.00 | 26 | 1001.8 |
| 20260508210517 | 71 | 244 | 3.5 | 9.6 | 0.00 | 0.00 | 0.00 | 23 | 1001.9 |
| 20260508210036 | 70 | 322 | 2.6 | 10.4 | 0.00 | 0.00 | 0.00 | 28 | 1002.0 |
| 20260508205517 | 70 | 255 | 4.3 | 10.4 | 0.00 | 0.00 | 0.00 | 25 | 1002.1 |
| 20260508205018 | 70 | 260 | 4.3 | 11.3 | 0.00 | 0.00 | 0.00 | 24 | 1002.2 |
| 20260508204533 | 70 | 229 | 6.1 | 13.9 | 0.00 | 0.00 | 0.00 | 29 | 1002.2 |
| 20260508204016 | 70 | 204 | 4.3 | 13.9 | 0.00 | 0.00 | 0.00 | 26 | 1002.2 |
| 20260508203517 | 70 | 355 | 3.5 | 10.4 | 0.00 | 0.00 | 0.00 | 28 | 1002.4 |
| 20260508203032 | 69 | 7 | 1.7 | 15.6 | 0.00 | 0.00 | 0.00 | 35 | 1002.5 |
| 20260508202517 | 69 | 213 | 4.3 | 15.6 | 0.00 | 0.00 | 0.00 | 31 | 1002.6 |
| 20260508202017 | 69 | 317 | 6.1 | 15.6 | 0.00 | 0.00 | 0.00 | 29 | 1002.8 |
| 20260508201535 | 70 | 324 | 1.7 | 12.2 | 0.00 | 0.00 | 0.00 | 32 | 1002.7 |
| 20260508201017 | 70 | 302 | 4.3 | 12.2 | 0.00 | 0.00 | 0.00 | 34 | 1002.7 |
| 20260508200518 | 70 | 294 | 2.6 | 11.3 | 0.00 | 0.00 | 0.00 | 27 | 1002.9 |
| 20260508200032 | 70 | 315 | 3.5 | 8.7 | 0.00 | 0.00 | 0.00 | 28 | 1003.0 |
| 20260508195516 | 69 | 244 | 2.6 | 8.7 | 0.00 | 0.00 | 0.00 | 27 | 1002.9 |
| 20260508195015 | 70 | 308 | 2.6 | 10.4 | 0.00 | 0.00 | 0.00 | 27 | 1003.0 |
| 20260508194536 | 70 | 284 | 3.5 | 10.4 | 0.00 | 0.00 | 0.00 | 25 | 1003.0 |
| 20260508194017 | 70 | 274 | 6.1 | 10.4 | 0.00 | 0.00 | 0.00 | 24 | 1003.2 |
| 20260508193518 | 70 | 267 | 2.6 | 7.8 | 0.00 | 0.00 | 0.00 | 25 | 1003.1 |
| 20260508193044 | 70 | 307 | 3.5 | 7.8 | 0.00 | 0.00 | 0.00 | 22 | 1003.3 |
| 20260508192518 | 70 | 236 | 2.6 | 13.9 | 0.00 | 0.00 | 0.00 | 25 | 1003.3 |
| 20260508192018 | 71 | 290 | 7.0 | 13.9 | 0.00 | 0.00 | 0.00 | 22 | 1003.4 |
| 20260508191539 | 71 | 293 | 4.3 | 11.3 | 0.00 | 0.00 | 0.00 | 24 | 1003.4 |
| 20260508191017 | 71 | 340 | 1.7 | 11.3 | 0.00 | 0.00 | 0.00 | 23 | 1003.5 |
| 20260508190517 | 71 | 234 | 3.5 | 14.8 | 0.00 | 0.00 | 0.00 | 25 | 1003.5 |
| 20260508190035 | 71 | 17 | 5.2 | 14.8 | 0.00 | 0.00 | 0.00 | 23 | 1003.4 |
| 20260508185516 | 71 | 246 | 5.2 | 13.0 | 0.00 | 0.00 | 0.00 | 23 | 1003.6 |
| 20260508185016 | 71 | 215 | 4.3 | 13.0 | 0.00 | 0.00 | 0.00 | 25 | 1003.7 |
| 20260508184534 | 70 | 6 | 3.5 | 12.2 | 0.00 | 0.00 | 0.00 | 27 | 1003.7 |
| 20260508184017 | 70 | 224 | 4.3 | 12.2 | 0.00 | 0.00 | 0.00 | 24 | 1003.9 |
| 20260508183518 | 71 | 291 | 5.2 | 12.2 | 0.00 | 0.00 | 0.00 | 25 | 1003.9 |
| 20260508183038 | 70 | 273 | 4.3 | 15.6 | 0.00 | 0.00 | 0.00 | 28 | 1004.2 |
| 20260508182517 | 70 | 297 | 7.0 | 15.6 | 0.00 | 0.00 | 0.00 | 24 | 1004.2 |
| 20260508182015 | 70 | 284 | 5.2 | 12.2 | 0.00 | 0.00 | 0.00 | 24 | 1004.1 |
| 20260508181534 | 70 | 265 | 5.2 | 12.2 | 0.00 | 0.00 | 0.00 | 24 | 1004.3 |
| 20260508181017 | 70 | 278 | 4.3 | 12.2 | 0.00 | 0.00 | 0.00 | 26 | 1004.5 |
| 20260508180518 | 70 | 226 | 3.5 | 9.6 | 0.00 | 0.00 | 0.00 | 30 | 1004.6 |
| 20260508180035 | 70 | 274 | 2.6 | 11.3 | 0.00 | 0.00 | 0.00 | 29 | 1004.7 |
| 20260508175517 | 69 | 262 | 3.5 | 14.8 | 0.00 | 0.00 | 0.00 | 27 | 1005.0 |
| 20260508175017 | 69 | 222 | 6.1 | 15.6 | 0.00 | 0.00 | 0.00 | 27 | 1005.0 |
| 20260508174538 | 69 | 258 | 6.1 | 15.6 | 0.00 | 0.00 | 0.00 | 27 | 1005.1 |
| 20260508174017 | 68 | 228 | 4.3 | 12.2 | 0.00 | 0.00 | 0.00 | 27 | 1005.3 |
| 20260508173518 | 68 | 187 | 3.5 | 12.2 | 0.00 | 0.00 | 0.00 | 31 | 1005.3 |
| 20260508173032 | 68 | 249 | 6.1 | 12.2 | 0.00 | 0.00 | 0.00 | 28 | 1005.4 |
| 20260508172518 | 66 | 183 | 2.6 | 10.4 | 0.00 | 0.00 | 0.00 | 30 | 1005.4 |
| 20260508172016 | 65 | 208 | 4.3 | 7.8 | 0.00 | 0.00 | 0.00 | 29 | 1005.5 |
| 20260508171538 | 65 | 248 | 2.6 | 7.8 | 0.00 | 0.00 | 0.00 | 32 | 1005.7 |
| 20260508171029 | 64 | 278 | 2.6 | 11.3 | 0.00 | 0.00 | 0.00 | 31 | 1005.7 |
| 20260508170517 | 64 | 269 | 2.6 | 12.2 | 0.00 | 0.00 | 0.00 | 28 | 1005.8 |
| 20260508170037 | 64 | 275 | 5.2 | 12.2 | 0.00 | 0.00 | 0.00 | 28 | 1005.9 |
| 20260508165516 | 65 | 283 | 4.3 | 12.2 | 0.00 | 0.00 | 0.00 | 29 | 1005.9 |
| 20260508165017 | 65 | 202 | 7.0 | 14.8 | 0.00 | 0.00 | 0.00 | 28 | 1006.0 |
| 20260508164532 | 65 | 207 | 3.5 | 14.8 | 0.00 | 0.00 | 0.00 | 29 | 1006.0 |
| 20260508164015 | 64 | 230 | 4.3 | 14.8 | 0.00 | 0.00 | 0.00 | 30 | 1006.1 |
| 20260508163516 | 64 | 263 | 3.5 | 13.9 | 0.00 | 0.00 | 0.00 | 29 | 1006.2 |
| 20260508163037 | 64 | 201 | 6.1 | 13.9 | 0.00 | 0.00 | 0.00 | 31 | 1006.1 |
| 20260508162518 | 64 | 250 | 5.2 | 13.0 | 0.00 | 0.00 | 0.00 | 30 | 1006.2 |
| 20260508162017 | 64 | 263 | 5.2 | 13.0 | 0.00 | 0.00 | 0.00 | 31 | 1006.2 |
| 20260508161622 | 64 | 280 | 3.5 | 11.3 | 0.00 | 0.00 | 0.00 | 31 | 1006.3 |
| 20260508161534 | 64 | 280 | 3.5 | 11.3 | 0.00 | 0.00 | 0.00 | 31 | 1006.3 |
| 20260508161016 | 64 | 265 | 5.2 | 13.0 | 0.00 | 0.00 | 0.00 | 30 | 1006.3 |
| 20260508160517 | 64 | 306 | 7.0 | 13.0 | 0.00 | 0.00 | 0.00 | 31 | 1006.3 |
| 20260508160036 | 64 | 278 | 5.2 | 11.3 | 0.00 | 0.00 | 0.00 | 30 | 1006.4 |
| 20260508155519 | 64 | 250 | 3.5 | 11.3 | 0.00 | 0.00 | 0.00 | 31 | 1006.4 |
| 20260508155018 | 64 | 278 | 6.1 | 13.0 | 0.00 | 0.00 | 0.00 | 31 | 1006.4 |
| 20260508154532 | 63 | 303 | 5.2 | 13.0 | 0.00 | 0.00 | 0.00 | 33 | 1006.4 |
| 20260508154017 | 62 | 249 | 1.7 | 7.0 | 0.00 | 0.00 | 0.00 | 33 | 1006.4 |
| 20260508153518 | 61 | 0 | 1.7 | 7.8 | 0.00 | 0.00 | 0.00 | 36 | 1006.5 |
| 20260508153036 | 61 | 203 | 3.5 | 7.8 | 0.00 | 0.00 | 0.00 | 37 | 1006.6 |
| 20260508152516 | 60 | 194 | 1.7 | 7.0 | 0.00 | 0.00 | 0.00 | 41 | 1006.8 |
| 20260508152018 | 60 | 196 | 0.0 | 6.1 | 0.00 | 0.00 | 0.00 | 43 | 1006.9 |
| 20260508151539 | 60 | 195 | 0.9 | 6.1 | 0.00 | 0.00 | 0.00 | 43 | 1007.0 |
| 20260508151017 | 59 | 0 | 0.0 | 3.5 | 0.00 | 0.00 | 0.00 | 44 | 1007.0 |
| 20260508150519 | 59 | 0 | 0.9 | 6.1 | 0.00 | 0.00 | 0.00 | 40 | 1007.0 |
| 20260508150037 | 58 | 173 | 1.7 | 6.1 | 0.00 | 0.00 | 0.00 | 41 | 1007.1 |
| 20260508145516 | 58 | 216 | 0.9 | 6.1 | 0.00 | 0.00 | 0.00 | 40 | 1007.2 |
| 20260508145017 | 58 | 195 | 3.5 | 6.1 | 0.00 | 0.00 | 0.00 | 36 | 1007.1 |
| 20260508144533 | 57 | 0 | 0.9 | 5.2 | 0.00 | 0.00 | 0.00 | 36 | 1007.2 |
| 20260508144016 | 57 | 196 | 0.9 | 7.8 | 0.00 | 0.00 | 0.00 | 40 | 1007.3 |
| 20260508143518 | 57 | 196 | 1.7 | 7.8 | 0.00 | 0.00 | 0.00 | 40 | 1007.3 |
| 20260508143033 | 57 | 0 | 2.6 | 7.8 | 0.00 | 0.00 | 0.00 | 40 | 1007.4 |
| 20260508142518 | 57 | 0 | 1.7 | 7.0 | 0.00 | 0.00 | 0.00 | 43 | 1007.4 |
| 20260508142018 | 57 | 193 | 0.9 | 5.2 | 0.00 | 0.00 | 0.00 | 41 | 1007.5 |
| 20260508141536 | 57 | 186 | 1.7 | 6.1 | 0.00 | 0.00 | 0.00 | 40 | 1007.6 |
| 20260508141018 | 57 | 209 | 2.6 | 8.7 | 0.00 | 0.00 | 0.00 | 41 | 1007.6 |
| 20260508140519 | 57 | 219 | 3.5 | 8.7 | 0.00 | 0.00 | 0.00 | 37 | 1007.6 |
| 20260508140032 | 57 | 249 | 1.7 | 6.1 | 0.00 | 0.00 | 0.00 | 37 | 1007.7 |
| 20260508135517 | 57 | 168 | 2.6 | 9.6 | 0.00 | 0.00 | 0.00 | 39 | 1007.7 |
| 20260508135017 | 56 | 161 | 2.6 | 9.6 | 0.00 | 0.00 | 0.00 | 43 | 1007.7 |
| 20260508134532 | 56 | 202 | 2.6 | 10.4 | 0.00 | 0.00 | 0.00 | 38 | 1007.7 |
| 20260508134016 | 55 | 161 | 3.5 | 10.4 | 0.00 | 0.00 | 0.00 | 38 | 1007.8 |
| 20260508133519 | 55 | 176 | 2.6 | 8.7 | 0.00 | 0.00 | 0.00 | 39 | 1007.8 |
| 20260508133036 | 54 | 198 | 2.6 | 7.8 | 0.00 | 0.00 | 0.00 | 43 | 1007.8 |
| 20260508132516 | 53 | 237 | 2.6 | 9.6 | 0.00 | 0.00 | 0.00 | 43 | 1007.8 |
| 20260508132016 | 52 | 213 | 3.5 | 9.6 | 0.00 | 0.00 | 0.00 | 43 | 1007.9 |
| 20260508131540 | 51 | 197 | 3.5 | 9.6 | 0.00 | 0.00 | 0.00 | 45 | 1007.9 |
| 20260508131018 | 51 | 0 | 1.7 | 8.7 | 0.00 | 0.00 | 0.00 | 47 | 1007.9 |
| 20260508130519 | 50 | 186 | 1.7 | 8.7 | 0.00 | 0.00 | 0.00 | 47 | 1007.9 |
| 20260508130034 | 49 | 155 | 2.6 | 8.7 | 0.00 | 0.00 | 0.00 | 49 | 1007.9 |
| 20260508125521 | 48 | 203 | 0.9 | 3.5 | 0.00 | 0.00 | 0.00 | 53 | 1008.0 |
| 20260508125017 | 47 | 203 | 0.0 | 3.5 | 0.00 | 0.00 | 0.00 | 54 | 1008.1 |
| 20260508124531 | 46 | 0 | 0.9 | 2.6 | 0.00 | 0.00 | 0.00 | 55 | 1008.1 |
| 20260508124019 | 45 | 0 | 0.0 | 0.0 | 0.00 | 0.00 | 0.00 | 56 | 1008.1 |
| 20260508123516 | 45 | 0 | 0.0 | 2.6 | 0.00 | 0.00 | 0.00 | 56 | 1008.1 |
| 20260508123037 | 44 | 0 | 0.0 | 2.6 | 0.00 | 0.00 | 0.00 | 58 | 1007.9 |
| 20260508122516 | 43 | 0 | 0.0 | 0.0 | 0.00 | 0.00 | 0.00 | 62 | 1007.8 |
| 20260508122016 | 42 | 0 | 0.0 | 0.0 | 0.00 | 0.00 | 0.00 | 63 | 1007.9 |
| 20260508121531 | 41 | 0 | 0.0 | 0.0 | 0.00 | 0.00 | 0.00 | 65 | 1007.9 |
| 20260508121015 | 41 | 0 | 0.0 | 0.0 | 0.00 | 0.00 | 0.00 | 66 | 1007.9 |
| 20260508120516 | 40 | 0 | 0.0 | 1.7 | 0.00 | 0.00 | 0.00 | 69 | 1007.7 |
| 20260508120040 | 40 | 0 | 0.0 | 4.3 | 0.00 | 0.00 | 0.00 | 69 | 1007.8 |
| 20260508115516 | 40 | 207 | 0.9 | 4.3 | 0.00 | 0.00 | 0.00 | 72 | 1007.8 |
| 20260508115015 | 39 | 207 | 0.0 | 4.3 | 0.00 | 0.00 | 0.00 | 72 | 1007.8 |
| 20260508114532 | 39 | 0 | 0.0 | 3.5 | 0.00 | 0.00 | 0.00 | 72 | 1007.7 |
| 20260508114017 | 39 | 215 | 0.0 | 3.5 | 0.00 | 0.00 | 0.00 | 71 | 1007.8 |
| 20260508113519 | 38 | 0 | 0.0 | 0.0 | 0.00 | 0.00 | 0.00 | 72 | 1007.8 |
| 20260508113041 | 38 | 0 | 0.0 | 0.0 | 0.00 | 0.00 | 0.00 | 74 | 1007.8 |
| 20260508112517 | 38 | 0 | 0.0 | 1.7 | 0.00 | 0.00 | 0.00 | 74 | 1007.8 |
| 20260508112016 | 37 | 0 | 0.0 | 1.7 | 0.00 | 0.00 | 0.00 | 74 | 1007.8 |
| 20260508111544 | 37 | 0 | 0.0 | 0.0 | 0.00 | 0.00 | 0.00 | 74 | 1007.8 |
| 20260508111019 | 37 | 0 | 0.0 | 0.0 | 0.00 | 0.00 | 0.00 | 74 | 1007.8 |
| 20260508110517 | 37 | 0 | 0.0 | 0.0 | 0.00 | 0.00 | 0.00 | 74 | 1007.8 |
| 20260508110037 | 37 | 0 | 0.0 | 0.0 | 0.00 | 0.00 | 0.00 | 73 | 1007.7 |
| 20260508105518 | 38 | 0 | 0.0 | 0.0 | 0.00 | 0.00 | 0.00 | 73 | 1007.7 |
| 20260508105020 | 38 | 0 | 0.0 | 0.0 | 0.00 | 0.00 | 0.00 | 72 | 1007.6 |
| 20260508104537 | 38 | 0 | 0.0 | 0.0 | 0.00 | 0.00 | 0.00 | 72 | 1007.7 |
| 20260508104017 | 38 | 0 | 0.0 | 0.0 | 0.00 | 0.00 | 0.00 | 72 | 1007.8 |
| 20260508103517 | 38 | 0 | 0.0 | 0.0 | 0.00 | 0.00 | 0.00 | 71 | 1007.7 |
| 20260508103035 | 38 | 0 | 0.0 | 2.6 | 0.00 | 0.00 | 0.00 | 71 | 1007.8 |
| 20260508102516 | 38 | 0 | 0.0 | 3.5 | 0.00 | 0.00 | 0.00 | 71 | 1007.7 |
| 20260508102017 | 38 | 0 | 1.7 | 3.5 | 0.00 | 0.00 | 0.00 | 71 | 1007.7 |
| 20260508101534 | 38 | 214 | 0.9 | 3.5 | 0.00 | 0.00 | 0.00 | 71 | 1007.7 |
| 20260508101016 | 38 | 214 | 0.0 | 1.7 | 0.00 | 0.00 | 0.00 | 72 | 1007.7 |
| 20260508100516 | 37 | 0 | 0.0 | 1.7 | 0.00 | 0.00 | 0.00 | 72 | 1007.7 |
| 20260508100033 | 37 | 0 | 0.0 | 1.7 | 0.00 | 0.00 | 0.00 | 73 | 1007.7 |
| 20260508095516 | 37 | 0 | 0.0 | 0.0 | 0.00 | 0.00 | 0.00 | 74 | 1007.8 |
| 20260508095017 | 37 | 0 | 0.0 | 0.0 | 0.00 | 0.00 | 0.00 | 75 | 1007.8 |
| 20260508094536 | 37 | 0 | 0.0 | 0.0 | 0.00 | 0.00 | 0.00 | 75 | 1007.8 |
| 20260508094017 | 37 | 0 | 0.0 | 0.0 | 0.00 | 0.00 | 0.00 | 75 | 1007.8 |
| 20260508093517 | 37 | 0 | 0.0 | 0.0 | 0.00 | 0.00 | 0.00 | 75 | 1007.8 |
| 20260508093033 | 37 | 0 | 0.0 | 0.0 | 0.00 | 0.00 | 0.00 | 75 | 1007.8 |
| 20260508092518 | 37 | 0 | 0.0 | 1.7 | 0.00 | 0.00 | 0.00 | 75 | 1007.9 |
| 20260508092017 | 37 | 0 | 0.0 | 1.7 | 0.00 | 0.00 | 0.00 | 75 | 1007.8 |
| 20260508091539 | 37 | 0 | 0.0 | 2.6 | 0.00 | 0.00 | 0.00 | 74 | 1007.8 |
| 20260508091017 | 37 | 214 | 0.9 | 2.6 | 0.00 | 0.00 | 0.00 | 75 | 1007.9 |
| 20260508090517 | 37 | 214 | 0.9 | 2.6 | 0.00 | 0.00 | 0.00 | 75 | 1007.8 |
| 20260508090035 | 37 | 214 | 0.0 | 2.6 | 0.00 | 0.00 | 0.00 | 75 | 1007.9 |
| 20260508085517 | 37 | 0 | 0.0 | 2.6 | 0.00 | 0.00 | 0.00 | 75 | 1007.9 |
| 20260508085016 | 38 | 0 | 0.0 | 2.6 | 0.00 | 0.00 | 0.00 | 75 | 1007.9 |
| 20260508084537 | 38 | 214 | 0.9 | 3.5 | 0.00 | 0.00 | 0.00 | 75 | 1007.9 |
| 20260508084020 | 38 | 213 | 1.7 | 3.5 | 0.00 | 0.00 | 0.00 | 75 | 1007.9 |
| 20260508083517 | 38 | 213 | 0.9 | 3.5 | 0.00 | 0.00 | 0.00 | 75 | 1007.9 |
| 20260508083035 | 38 | 213 | 0.0 | 3.5 | 0.00 | 0.00 | 0.00 | 75 | 1007.9 |
| 20260508082516 | 38 | 213 | 0.9 | 3.5 | 0.00 | 0.00 | 0.00 | 75 | 1008.0 |
| 20260508082018 | 38 | 213 | 1.7 | 3.5 | 0.00 | 0.00 | 0.00 | 75 | 1008.1 |
| 20260508081545 | 38 | 213 | 0.0 | 3.5 | 0.00 | 0.00 | 0.00 | 75 | 1008.1 |
| 20260508081017 | 38 | 215 | 1.7 | 5.2 | 0.00 | 0.00 | 0.00 | 75 | 1008.1 |
| 20260508080521 | 38 | 213 | 1.7 | 5.2 | 0.00 | 0.00 | 0.00 | 75 | 1008.1 |
| 20260508080033 | 38 | 205 | 1.7 | 4.3 | 0.00 | 0.00 | 0.00 | 75 | 1008.2 |
| 20260508075517 | 38 | 204 | 1.7 | 4.3 | 0.00 | 0.00 | 0.00 | 75 | 1008.2 |
| 20260508075016 | 38 | 219 | 1.7 | 4.3 | 0.00 | 0.00 | 0.00 | 75 | 1008.2 |
| 20260508074534 | 38 | 219 | 1.7 | 4.3 | 0.00 | 0.00 | 0.00 | 75 | 1008.2 |
| 20260508074017 | 38 | 215 | 1.7 | 5.2 | 0.00 | 0.00 | 0.00 | 75 | 1008.2 |
| 20260508073517 | 38 | 177 | 1.7 | 5.2 | 0.00 | 0.00 | 0.00 | 76 | 1008.3 |
| 20260508073038 | 38 | 189 | 1.7 | 5.2 | 0.00 | 0.00 | 0.00 | 76 | 1008.4 |
| 20260508072516 | 38 | 241 | 1.7 | 3.5 | 0.00 | 0.00 | 0.00 | 76 | 1008.3 |
| 20260508072016 | 38 | 244 | 1.7 | 3.5 | 0.00 | 0.00 | 0.00 | 76 | 1008.4 |
| 20260508071534 | 38 | 252 | 1.7 | 3.5 | 0.00 | 0.00 | 0.00 | 76 | 1008.4 |
| 20260508071016 | 38 | 255 | 0.9 | 3.5 | 0.00 | 0.00 | 0.00 | 76 | 1008.5 |
| 20260508070517 | 38 | 255 | 1.7 | 3.5 | 0.00 | 0.00 | 0.00 | 76 | 1008.4 |
| 20260508070035 | 38 | 255 | 1.7 | 3.5 | 0.00 | 0.00 | 0.00 | 76 | 1008.4 |
| 20260508065519 | 38 | 282 | 0.0 | 3.5 | 0.00 | 0.00 | 0.00 | 75 | 1008.5 |
| 20260508065017 | 38 | 282 | 1.7 | 3.5 | 0.00 | 0.00 | 0.00 | 76 | 1008.5 |
| 20260508064536 | 38 | 283 | 1.7 | 3.5 | 0.00 | 0.00 | 0.00 | 76 | 1008.6 |
| 20260508064019 | 38 | 284 | 0.9 | 3.5 | 0.00 | 0.00 | 0.00 | 75 | 1008.5 |
| 20260508063521 | 38 | 288 | 0.9 | 2.6 | 0.00 | 0.00 | 0.00 | 75 | 1008.6 |
| 20260508063036 | 38 | 288 | 1.7 | 2.6 | 0.00 | 0.00 | 0.00 | 75 | 1008.7 |
| 20260508062516 | 38 | 289 | 1.7 | 2.6 | 0.00 | 0.00 | 0.00 | 75 | 1008.7 |
| 20260508062017 | 38 | 290 | 1.7 | 2.6 | 0.00 | 0.00 | 0.00 | 75 | 1008.7 |
| 20260508061532 | 38 | 290 | 1.7 | 2.6 | 0.00 | 0.00 | 0.00 | 74 | 1008.7 |
| 20260508061017 | 38 | 290 | 0.9 | 2.6 | 0.00 | 0.00 | 0.00 | 73 | 1008.8 |
| 20260508060519 | 38 | 0 | 0.0 | 2.6 | 0.00 | 0.00 | 0.00 | 73 | 1008.8 |
| 20260508060032 | 39 | 0 | 0.0 | 2.6 | 0.00 | 0.00 | 0.00 | 73 | 1008.8 |
| 20260508055516 | 39 | 290 | 0.9 | 2.6 | 0.00 | 0.00 | 0.00 | 72 | 1008.8 |
| 20260508055017 | 39 | 290 | 1.7 | 2.6 | 0.00 | 0.00 | 0.00 | 72 | 1008.8 |
| 20260508054536 | 39 | 290 | 1.7 | 2.6 | 0.00 | 0.00 | 0.00 | 72 | 1008.8 |
| 20260508054016 | 39 | 290 | 1.7 | 2.6 | 0.00 | 0.00 | 0.00 | 72 | 1008.8 |
| 20260508053516 | 39 | 290 | 1.7 | 2.6 | 0.00 | 0.00 | 0.00 | 71 | 1008.9 |
| 20260508053032 | 39 | 290 | 1.7 | 2.6 | 0.00 | 0.00 | 0.00 | 71 | 1009.0 |
| 20260508052517 | 39 | 290 | 0.9 | 2.6 | 0.00 | 0.00 | 0.00 | 70 | 1009.0 |
| 20260508052017 | 39 | 290 | 0.9 | 2.6 | 0.00 | 0.00 | 0.00 | 69 | 1009.0 |
| 20260508051538 | 39 | 290 | 1.7 | 2.6 | 0.00 | 0.00 | 0.00 | 68 | 1009.0 |
| 20260508051017 | 39 | 290 | 1.7 | 3.5 | 0.00 | 0.00 | 0.00 | 68 | 1009.0 |
| 20260508050517 | 39 | 290 | 1.7 | 3.5 | 0.00 | 0.00 | 0.00 | 68 | 1009.0 |
| 20260508050035 | 39 | 290 | 1.7 | 3.5 | 0.00 | 0.00 | 0.00 | 67 | 1009.1 |
| 20260508045519 | 39 | 290 | 1.7 | 3.5 | 0.00 | 0.00 | 0.00 | 66 | 1009.1 |
| 20260508045016 | 40 | 290 | 1.7 | 3.5 | 0.00 | 0.00 | 0.00 | 66 | 1009.2 |
| 20260508044534 | 40 | 290 | 1.7 | 2.6 | 0.00 | 0.00 | 0.00 | 65 | 1009.2 |
| 20260508044017 | 40 | 290 | 1.7 | 2.6 | 0.00 | 0.00 | 0.00 | 64 | 1009.3 |
| 20260508043517 | 40 | 290 | 0.9 | 2.6 | 0.00 | 0.00 | 0.00 | 63 | 1009.3 |
| 20260508043032 | 40 | 290 | 0.0 | 2.6 | 0.00 | 0.00 | 0.00 | 62 | 1009.3 |
| 20260508042517 | 40 | 290 | 1.7 | 2.6 | 0.00 | 0.00 | 0.00 | 61 | 1009.4 |
| 20260508042016 | 40 | 290 | 1.7 | 2.6 | 0.00 | 0.00 | 0.00 | 60 | 1009.4 |
| 20260508041536 | 41 | 290 | 0.9 | 2.6 | 0.00 | 0.00 | 0.00 | 60 | 1009.3 |
| 20260508041017 | 41 | 290 | 0.9 | 2.6 | 0.00 | 0.00 | 0.00 | 59 | 1009.3 |
| 20260508040516 | 41 | 290 | 1.7 | 2.6 | 0.00 | 0.00 | 0.00 | 58 | 1009.3 |
| 20260508040037 | 41 | 290 | 0.9 | 2.6 | 0.00 | 0.00 | 0.00 | 58 | 1009.3 |
| 20260508035517 | 41 | 290 | 0.0 | 2.6 | 0.00 | 0.00 | 0.00 | 57 | 1009.3 |
| 20260508035019 | 42 | 0 | 0.0 | 0.0 | 0.00 | 0.00 | 0.00 | 57 | 1009.4 |
| 20260508034535 | 42 | 0 | 0.0 | 1.7 | 0.00 | 0.00 | 0.00 | 56 | 1009.4 |
| 20260508034017 | 42 | 0 | 0.0 | 1.7 | 0.00 | 0.00 | 0.00 | 55 | 1009.5 |
| 20260508033517 | 42 | 0 | 0.0 | 1.7 | 0.00 | 0.00 | 0.00 | 55 | 1009.4 |
| 20260508033033 | 43 | 0 | 0.0 | 0.0 | 0.00 | 0.00 | 0.00 | 54 | 1009.5 |
| 20260508032519 | 43 | 0 | 0.0 | 0.0 | 0.00 | 0.00 | 0.00 | 53 | 1009.5 |